This demonstration page uses our WeatherBlox Daily Observations layout. Learn more.

Left ArrowRight Arrow

41.12389, -100.76542

Hourly Observations for March 24, 2018

Temp ( °F °C ) Dew Point ( °F °C ) Humidity (%) Winds ( mph kmh ) Pressure ( in mb ) Visibility ( mi km ) Precip ( " mm )
12:03 am 00:03 Clear with Mist and Fog 39 3.9 38 3.3 96 96 E 6 9 29.91 1013 3 4 0.00 0.00
12:14 am 00:14 Partly Cloudy with Mist and Fog 41 5 38 3.3 89 89 NE 6 9 29.88 1012 3 5 0.00 0.00
12:25 am 00:25 Mostly Cloudy with Mist and Fog 41 5 39 3.9 93 93 Calm 29.88 1012 3 5 0.00 0.00
12:53 am 00:53 Cloudy with Mist and Fog 43 6.1 41 5 93 93 Calm 29.86 1011 4 6 0.00 0.00
1:53 am 01:53 Cloudy with Mist and Fog 44 6.7 42 5.6 93 93 WNW 3 6 29.86 1011 5 8 0.00 0.00
2:53 am 02:53 Cloudy 47 8.3 43 6.1 86 86 NNW 14 22 29.88 1012 7 11 0.00 0.00
3:24 am 03:24 Partly Cloudy 46 7.8 41 5 83 83 NW 9 15 29.91 1013 10 16 0.00 0.00
3:53 am 03:53 Clear 42 5.6 39 3.9 89 89 WNW 10 17 29.89 1012 10 16 0.00 0.00
4:53 am 04:53 Clear 40 4.4 36 2.2 86 86 NW 16 26 29.93 1014 10 16 0.00 0.00
5:53 am 05:53 Clear 38 3.3 34 1.1 86 86 NW 10 17 29.96 1015 10 16 0.00 0.00
6:29 am 06:29 Mostly Cloudy 39 3.9 34 1.1 82 82 NNW 13 20 30.03 1017 10 16 0.00 0.00
6:50 am 06:50 Cloudy 39 4 34 1 81 81 NNW 13 20 30.03 1017 10 16 0.00 0.00
6:53 am 06:53 Cloudy 39 3.9 34 1.1 82 82 NNW 14 22 29.98 1015 10 16 0.00 0.00
7:53 am 07:53 Mostly Cloudy 38 3.3 34 1.1 86 86 NW 7 11 30.01 1016 10 16 0.00 0.00
8:38 am 08:38 Cloudy 40 4.4 35 1.7 83 83 N 16 26 30.06 1018 10 16 0.00 0.00
8:53 am 08:53 Mostly Cloudy 39 3.9 33 0.6 79 79 N 15 24 30.03 1017 10 16 0.00 0.00
9:19 am 09:19 Mostly Cloudy 38 3.3 32 0 79 79 NNW 18 30 30.09 1019 10 16 0.00 0.00
9:30 am 09:30 Cloudy 38 3.3 32 0 79 79 NNW 17 28 30.09 1019 10 16 0.00 0.00
9:53 am 09:53 Mostly Cloudy 39 3.9 32 0 76 76 N 16 26 30.06 1018 10 16 0.00 0.00
10:53 am 10:53 Cloudy 42 5.6 34 1.1 73 73 NNE 15 24 30.06 1018 10 16 0.00 0.00
11:53 am 11:53 Cloudy 44 6.7 34 1.1 68 68 N 9 15 30.07 1018 10 16 0.00 0.00
12:53 pm 12:53 Cloudy 47 8.3 34 1.1 61 61 NE 8 13 30.05 1018 10 16 0.00 0.00
1:53 pm 13:53 Partly Cloudy 51 10.6 35 1.7 54 54 NNE 10 17 30.02 1017 10 16 0.00 0.00
2:53 pm 14:53 Sunny 54 12.2 34 1.1 47 47 NNE 7 11 29.99 1016 10 16 0.00 0.00
3:53 pm 15:53 Sunny 54 12.2 35 1.7 49 49 E 14 22 29.96 1015 10 16 0.00 0.00
4:53 pm 16:53 Sunny 52 11.1 35 1.7 53 53 ESE 14 22 29.96 1015 10 16 0.00 0.00
5:53 pm 17:53 Sunny 49 9.4 35 1.7 59 59 ESE 15 24 29.97 1015 10 16 0.00 0.00
6:53 pm 18:53 Sunny 46 7.8 35 1.7 66 66 E 14 22 29.96 1015 10 16 0.00 0.00
7:53 pm 19:53 Sunny 39 3.9 32 0 76 76 ESE 13 20 30.00 1016 10 16 0.00 0.00
8:42 pm 20:42 Mostly Cloudy 39 3.9 32 0 76 76 ESE 16 26 30.03 1017 10 16 0.00 0.00
8:53 pm 20:53 Cloudy 38 3.3 32 0 79 79 ESE 18 30 30.01 1016 10 16 0.00 0.00
9:14 pm 21:14 Cloudy 37 2.8 31 -0.6 79 79 ESE 16 26 30.03 1017 10 16 0.00 0.00
9:53 pm 21:53 Cloudy 37 2.8 31 -0.6 79 79 ESE 15 24 30.04 1017 10 16 0.00 0.00
10:53 pm 22:53 Cloudy 35 1.7 30 -1.1 82 82 ESE 17 28 30.01 1016 10 16 0.00 0.00
11:53 pm 23:53 Cloudy 34 1.1 30 -1.1 85 85 ESE 15 24 29.99 1016 10 16 0.00 0.00

Powered by AerisWeather